LiveATC.Net - Listen to live air traffic control over the Internet!


ICAO: LBPD  IATA: PDV   Airport: Plovdiv International Airport
City: Plovdiv
Country: Bulgaria   Continent: Europe
LBPD METAR Weather: LBPD 140930Z AUTO 32003KT 290V350 9999 -RA OVC007 14/12 Q1011 TEMPO 3000 RA
LBPD Flight Activity (FlightAware)

LBPD Tower
Feed Status: UP   Listeners: 1
Listen in your browser - HTML5 player (in browser, HTML5)
Click here to listen with your own player (launches your MP3 player)
Archive Access: LBPD Tower
FacilityFrequency
Plovdiv Tower125.500
Plovdiv Tower133.600

NOTICE

Unauthorized use prohibited. See LiveATC.net Terms of Service


Airport/ARTCC Code
Frequency Search
(e.g., 124.400, 128.75)
Site-wide search
 


Browse LiveATC Feeds
Top 50 LiveATC Feeds
LiveATC Feed Map
Bad Weather Areas

LiveATC FAQ
Offer LiveATC feed
Contact LiveATC.net
Press Inquiries

LiveATC on iPhone
LiveATC on Android

Windows Phone
Windows 8/10

LiveATC Mobile
(Mobile browser)

ATC Audio Archives
Interesting Recordings

LiveATC Forums


Home Page
About LiveATC.net
Make a Donation
Terms of Use
Privacy Policy

Canadian Air Freqs

AIRMETs/SIGMETs

FAA Airport Status
Nat'l Airspace Status
Arrival Demand Charts


Server Software By:
Icecast.org
Liquidsoap